[[{"header":{"parameterUnit":"m.s-1","parameterCategory":1,"la1":30.2991,"la2":30.254,"lo1":-89.0895,"lo2":-89.0444,"dy":0.0017,"dx":0.0017,"nx":28,"ny":28,"refTime":"2023-10-23T03:00:00:Z","depth":0,"parameterNumber":2,"parameterNumberName":"U-component_of_WINDS"},"data":[0,0,0,0,0,0,0,0,0,0,0,0,0,0,0,0,0,0,0,0,0,0,0,0,0,0,0,0,0,0,0,0,0,0,0,0,0,0,0,0,0,0,0,0,0,0,0,0,0,0,0,0,0,0,0,0,0,0,-0.2858,-0.2858,0,-0.2822,-0.2822,-0.2821,-0.2806,-0.2806,-0.2806,-0.2806,-0.2768,-0.2767,-0.2766,0,0,0,0,0,0,0,0,0,0,0,0,0,-0.2914,-0.2913,-0.2858,-0.2858,-0.2857,-0.2822,-0.2822,-0.2821,-0.2806,-0.2806,-0.2806,-0.2806,-0.2769,-0.2767,-0.2766,0,0,0,0,0,0,0,0,0,0,0,0,0,-0.2885,-0.2913,-0.2858,-0.2845,-0.2844,-0.2822,-0.2822,-0.2821,-0.2806,-0.2806,-0.2806,-0.2806,-0.2769,-0.2767,-0.2766,-0.2754,0,0,-0.2761,-0.276,0,0,0,0,0,0,0,0,-0.2887,-0.2883,-0.2848,-0.2846,-0.2845,-0.2819,-0.2827,-0.2798,-0.2806,-0.282,-0.2806,-0.2806,-0.2785,-0.2782,-0.2775,-0.2752,-0.275,-0.2761,-0.276,-0.2759,-0.2759,0,0,0,0,0,0,0,-0.2889,-0.2884,-0.2844,-0.2847,-0.2845,-0.2842,-0.2838,-0.2822,-0.2802,-0.2819,-0.2818,-0.2814,-0.2784,-0.2776,-0.2774,-0.275,-0.2761,-0.2759,-0.2758,-0.2758,-0.2716,-0.2716,0,0,0,0,0,0,-0.2893,-0.2886,-0.2845,-0.2843,-0.2866,-0.284,-0.2836,-0.2827,-0.2803,-0.2799,-0.2814,-0.2813,-0.2779,-0.2776,-0.2772,-0.2757,-0.2759,-0.2758,-0.2757,-0.2716,-0.2716,-0.2716,0,0,0,0,0,0,-0.2894,-0.2889,-0.2846,-0.2864,-0.2858,-0.2839,-0.2829,-0.2826,-0.2819,-0.2799,-0.2795,-0.281,-0.2779,-0.2775,-0.2759,-0.2755,-0.2757,-0.2755,-0.2716,-0.2716,-0.2716,-0.2726,0,0,0,0,0,0,-0.2896,-0.289,-0.2885,-0.2864,-0.2858,-0.2833,-0.2829,-0.2825,-0.2816,-0.2815,-0.2794,-0.279,-0.2779,-0.2761,-0.2757,-0.2753,-0.2754,-0.2716,-0.2716,-0.2716,-0.2726,-0.2726,-0.2726,0,0,0,0,0,-0.2898,-0.2889,-0.2885,-0.288,-0.2851,-0.2833,-0.2829,-0.2817,-0.2816,-0.2811,-0.2798,-0.2791,-0.2757,-0.276,-0.2755,-0.2751,-0.2716,-0.2716,-0.2716,-0.2726,-0.2726,-0.2726,0,0,0,0,0,0,-0.2909,-0.2886,-0.2881,-0.2865,-0.2851,-0.2831,-0.2824,-0.2817,-0.2803,-0.2803,-0.2787,-0.2783,-0.2768,-0.2758,-0.2761,-0.2738,-0.2736,-0.2735,-0.2745,-0.2745,-0.2746,-0.2748,-0.2753,0,0,0,0,0,-0.291,-0.2898,-0.2878,-0.2866,-0.2859,-0.2843,-0.2834,-0.2826,-0.2811,-0.2805,-0.2791,-0.2776,-0.2762,-0.2753,-0.2739,-0.2724,-0.272,-0.2719,-0.2719,-0.272,-0.2719,-0.2711,-0.271,-0.2714,-0.2714,-0.2714,0,0,-0.2911,-0.2897,-0.289,-0.2868,-0.2856,-0.2843,-0.2838,-0.2825,-0.2815,-0.2803,-0.2787,-0.2776,-0.2759,-0.2744,-0.2736,-0.2735,-0.2717,-0.2719,-0.272,-0.2718,-0.271,-0.271,-0.271,-0.2714,-0.2714,-0.2714,0,0,-0.2907,-0.2895,-0.2884,-0.2873,-0.2855,-0.2845,-0.2842,-0.2822,-0.2815,-0.2799,-0.279,-0.2778,-0.2754,-0.2743,-0.2734,-0.2726,-0.2719,-0.2722,-0.2724,-0.2716,-0.2716,-0.2715,-0.2713,-0.2712,-0.2721,-0.2721,-0.2721,0,-0.2911,-0.2891,-0.2879,-0.2866,-0.2857,-0.2846,-0.2835,-0.2824,-0.2803,-0.2797,-0.2796,-0.2766,-0.2753,-0.2736,-0.2734,-0.2727,-0.2724,-0.2724,-0.2717,-0.2716,-0.2716,-0.2713,-0.2712,-0.2722,-0.2722,-0.2722,-0.2722,0,-0.2897,-0.2884,-0.2877,-0.2858,-0.2848,-0.2836,-0.2821,-0.2813,-0.2806,-0.2795,-0.278,-0.2764,-0.2747,-0.2743,-0.2735,-0.2724,-0.2723,-0.272,-0.2717,-0.2716,-0.2713,-0.2712,-0.2722,-0.2722,-0.2722,-0.2722,0,0,-0.2898,-0.2873,-0.287,-0.2862,-0.2842,-0.2832,-0.282,-0.2804,-0.2797,-0.2783,-0.2772,-0.2753,-0.275,-0.274,-0.2731,-0.2724,-0.272,-0.2721,-0.272,-0.2721,-0.2707,-0.271,-0.2709,-0.2715,-0.2715,-0.2715,-0.2708,0,-0.2891,-0.2869,-0.2858,-0.2841,-0.2829,-0.2819,-0.2809,-0.2796,-0.2786,-0.2775,-0.2764,-0.275,-0.2747,-0.2741,-0.2734,-0.2722,-0.2717,-0.2722,-0.2705,-0.2705,-0.271,-0.2707,-0.271,-0.2704,-0.2707,-0.2707,-0.2707,0,-0.288,-0.2867,-0.2849,-0.2832,-0.2826,-0.2817,-0.2802,-0.2791,-0.2776,-0.277,-0.2759,-0.2751,-0.2738,-0.2737,-0.2719,-0.2723,-0.2716,-0.2709,-0.2709,-0.2706,-0.2706,-0.2705,-0.2702,-0.2701,-0.2705,-0.2705,-0.2705,0,-0.2883,-0.286,-0.2847,-0.284,-0.2819,-0.2813,-0.2805,-0.279,-0.2781,-0.2768,-0.2762,-0.2748,-0.274,-0.2729,-0.2717,-0.2717,-0.27,-0.2698,-0.2694,-0.2694,-0.269,-0.2691,-0.2687,-0.2686,-0.2686,-0.2686,-0.2686,0,-0.2876,-0.2865,-0.2848,-0.284,-0.2828,-0.2815,-0.2804,-0.2794,-0.2782,-0.2771,-0.2762,-0.2752,-0.2737,-0.2726,-0.2716,-0.2703,-0.27,-0.2694,-0.2691,-0.2695,-0.2695,-0.2689,-0.2689,-0.2686,-0.2686,-0.2686,-0.2686,0,-0.2876,-0.2864,-0.2849,-0.2832,-0.2827,-0.2819,-0.2804,-0.2795,-0.2786,-0.2773,-0.2769,-0.2754,-0.274,-0.2727,-0.2709,-0.2702,-0.2689,-0.2686,-0.2694,-0.2693,-0.269,-0.269,-0.2681,-0.268,-0.2681,-0.2681,-0.2681,0,-0.2873,-0.2865,-0.2846,-0.2839,-0.2831,-0.2819,-0.281,-0.2798,-0.279,-0.2773,-0.2767,-0.2752,-0.274,-0.2719,-0.2706,-0.2692,-0.2688,-0.2686,-0.2686,-0.269,-0.2688,-0.2689,-0.2688,-0.2686,-0.2686,-0.2686,-0.2686,0,-0.2868,-0.2863,-0.2851,-0.2837,-0.2827,-0.2816,-0.2804,-0.2798,-0.2784,-0.2775,-0.2761,-0.2752,-0.2734,-0.272,-0.2704,-0.2695,-0.2688,-0.2687,-0.2685,-0.2688,-0.2693,-0.2691,-0.2695,-0.2687,-0.2687,-0.2687,-0.2687,-0.2687,-0.2866,-0.2858,-0.2845,-0.2832,-0.2822,-0.2812,-0.2803,-0.2793,-0.2781,-0.2766,-0.2759,-0.2746,-0.2732,-0.2711,-0.2702,-0.2691,-0.2689,-0.2687,-0.2686,-0.2686,-0.2686,-0.2695,-0.2688,-0.2688,-0.2688,-0.2688,-0.2688,0,-0.286,-0.2851,-0.284,-0.2824,-0.2815,-0.281,-0.2797,-0.2789,-0.2777,-0.2765,-0.2754,-0.2738,-0.2725,-0.2711,-0.2697,-0.2691,-0.2688,-0.2688,-0.2688,-0.2686,-0.2689,-0.2691,-0.2691,-0.2691,-0.2691,-0.2691,-0.2691,-0.2691,-0.2856,-0.2844,-0.2837,-0.2819,-0.281,-0.2797,-0.279,-0.2781,-0.2771,-0.2754,-0.2744,-0.2735,-0.2723,-0.2708,-0.2696,-0.2692,-0.2687,-0.2688,-0.2684,-0.2686,-0.2686,-0.2686,-0.2688,-0.2687,-0.2687,-0.2682,-0.2682,-0.2682]},{"header":{"parameterUnit":"m.s-1","parameterCategory":1,"la1":30.2991,"la2":30.254,"lo1":-89.0895,"lo2":-89.0444,"dy":0.0017,"dx":0.0017,"nx":28,"ny":28,"refTime":"2023-10-23T03:00:00:Z","depth":0,"parameterNumber":3,"parameterNumberName":"V-component_of_WINDS"},"data":[0,0,0,0,0,0,0,0,0,0,0,0,0,0,0,0,0,0,0,0,0,0,0,0,0,0,0,0,0,0,0,0,0,0,0,0,0,0,0,0,0,0,0,0,0,0,0,0,0,0,0,0,0,0,0,0,0,0,-0.0326,-0.0327,0,-0.0385,-0.0386,-0.0386,-0.0415,-0.0415,-0.0415,-0.0415,-0.0476,-0.0478,-0.048,0,0,0,0,0,0,0,0,0,0,0,0,0,-0.0238,-0.024,-0.0326,-0.0327,-0.0327,-0.0385,-0.0386,-0.0387,-0.0415,-0.0415,-0.0415,-0.0415,-0.0476,-0.0478,-0.048,0,0,0,0,0,0,0,0,0,0,0,0,0,-0.0285,-0.024,-0.0326,-0.0349,-0.0351,-0.0385,-0.0386,-0.0387,-0.0415,-0.0415,-0.0415,-0.0415,-0.0475,-0.0478,-0.048,-0.0496,0,0,-0.0488,-0.0489,0,0,0,0,0,0,0,0,-0.0282,-0.0288,-0.0345,-0.0347,-0.035,-0.0393,-0.0377,-0.0423,-0.0415,-0.0391,-0.0415,-0.0415,-0.0449,-0.0453,-0.0464,-0.0498,-0.0501,-0.0488,-0.0489,-0.049,-0.0491,0,0,0,0,0,0,0,-0.0279,-0.0285,-0.0349,-0.0345,-0.0349,-0.0356,-0.0363,-0.0386,-0.0419,-0.0393,-0.0395,-0.0402,-0.045,-0.0462,-0.0466,-0.0502,-0.0488,-0.049,-0.0491,-0.0492,-0.0551,-0.0551,0,0,0,0,0,0,-0.0272,-0.0283,-0.0347,-0.0351,-0.0315,-0.0358,-0.0365,-0.0379,-0.0419,-0.0425,-0.0402,-0.0403,-0.0458,-0.0463,-0.0468,-0.0489,-0.049,-0.0493,-0.0494,-0.0551,-0.0551,-0.0551,0,0,0,0,0,0,-0.027,-0.0277,-0.0345,-0.0317,-0.0327,-0.0359,-0.0375,-0.038,-0.0392,-0.0426,-0.0432,-0.0408,-0.0458,-0.0465,-0.0488,-0.0491,-0.0494,-0.0496,-0.0551,-0.0551,-0.0551,-0.053,0,0,0,0,0,0,-0.0267,-0.0276,-0.0283,-0.0317,-0.0328,-0.0364,-0.0375,-0.0381,-0.0396,-0.0398,-0.0433,-0.0439,-0.0459,-0.0485,-0.0491,-0.0495,-0.0498,-0.0551,-0.0551,-0.0551,-0.0531,-0.0529,-0.0528,0,0,0,0,0,-0.0264,-0.0274,-0.0283,-0.029,-0.0336,-0.0364,-0.037,-0.0393,-0.0396,-0.0403,-0.0424,-0.0437,-0.049,-0.0487,-0.0494,-0.0499,-0.0551,-0.0551,-0.0551,-0.0531,-0.053,-0.0528,0,0,0,0,0,0,-0.024,-0.028,-0.0289,-0.0311,-0.0334,-0.0369,-0.0378,-0.0391,-0.0413,-0.0414,-0.0441,-0.0449,-0.047,-0.0487,-0.0482,-0.0516,-0.0522,-0.0523,-0.0504,-0.0503,-0.0502,-0.0497,-0.05,0,0,0,0,0,-0.0237,-0.0256,-0.029,-0.0306,-0.0317,-0.0345,-0.0358,-0.0374,-0.0398,-0.0408,-0.0431,-0.0455,-0.0477,-0.0491,-0.0513,-0.0533,-0.0541,-0.054,-0.0539,-0.0538,-0.0539,-0.055,-0.055,-0.0552,-0.0552,-0.0552,0,0,-0.0231,-0.0255,-0.0266,-0.0302,-0.0321,-0.034,-0.0353,-0.0373,-0.0388,-0.0411,-0.0435,-0.0453,-0.0481,-0.0503,-0.0513,-0.0517,-0.054,-0.0538,-0.0537,-0.0539,-0.0551,-0.055,-0.055,-0.0552,-0.0552,-0.0552,0,0,-0.0231,-0.0251,-0.0267,-0.0286,-0.0315,-0.0334,-0.0337,-0.037,-0.0383,-0.0407,-0.0425,-0.0442,-0.048,-0.0499,-0.0513,-0.0519,-0.0532,-0.0526,-0.052,-0.0531,-0.0531,-0.0531,-0.0533,-0.0533,-0.0527,-0.0527,-0.0527,0,-0.0221,-0.025,-0.0274,-0.0292,-0.0307,-0.0329,-0.0345,-0.0363,-0.0397,-0.0407,-0.0411,-0.0458,-0.0478,-0.0505,-0.0506,-0.0517,-0.0522,-0.0522,-0.0529,-0.0529,-0.053,-0.0532,-0.0533,-0.0526,-0.0526,-0.0526,-0.0526,0,-0.0236,-0.0256,-0.0265,-0.0298,-0.0314,-0.0331,-0.0357,-0.0371,-0.0384,-0.0402,-0.0426,-0.0451,-0.0479,-0.0486,-0.05,-0.0514,-0.0516,-0.0524,-0.053,-0.0528,-0.0531,-0.0532,-0.0524,-0.0525,-0.0525,-0.0525,0,0,-0.0223,-0.0268,-0.0271,-0.0285,-0.0319,-0.0335,-0.0353,-0.0379,-0.039,-0.0413,-0.0429,-0.0459,-0.0467,-0.0483,-0.0499,-0.0509,-0.0512,-0.0516,-0.0517,-0.0514,-0.0529,-0.0522,-0.0523,-0.052,-0.052,-0.0521,-0.0526,0,-0.0228,-0.0261,-0.0282,-0.0307,-0.0325,-0.0346,-0.0361,-0.0383,-0.0401,-0.0419,-0.0438,-0.0459,-0.0468,-0.0478,-0.0488,-0.0509,-0.0515,-0.0509,-0.0535,-0.0536,-0.0527,-0.0524,-0.0518,-0.0522,-0.0527,-0.0528,-0.0528,0,-0.0238,-0.026,-0.0286,-0.0317,-0.0325,-0.0339,-0.0364,-0.0382,-0.0407,-0.0419,-0.0437,-0.0453,-0.0472,-0.0477,-0.0504,-0.0499,-0.0511,-0.0523,-0.0524,-0.0527,-0.0532,-0.0528,-0.0524,-0.0525,-0.053,-0.053,-0.0529,0,-0.0225,-0.0262,-0.0282,-0.0294,-0.033,-0.0339,-0.0355,-0.038,-0.0394,-0.0416,-0.0426,-0.045,-0.0463,-0.0482,-0.0504,-0.0505,-0.0529,-0.0535,-0.0539,-0.0538,-0.0544,-0.0543,-0.0542,-0.0551,-0.0551,-0.0551,-0.0551,0,-0.0228,-0.0244,-0.0277,-0.0289,-0.0307,-0.0331,-0.0348,-0.0365,-0.0387,-0.0403,-0.0423,-0.0437,-0.0465,-0.0484,-0.0501,-0.0521,-0.0527,-0.0537,-0.0541,-0.0535,-0.0534,-0.0543,-0.0544,-0.0551,-0.0551,-0.0551,-0.0551,0,-0.0218,-0.0241,-0.0264,-0.0296,-0.0305,-0.0316,-0.0344,-0.0357,-0.0375,-0.0395,-0.0401,-0.0429,-0.0451,-0.0475,-0.0506,-0.0517,-0.0536,-0.0542,-0.0528,-0.053,-0.0533,-0.0532,-0.0538,-0.054,-0.0547,-0.0547,-0.0547,0,-0.0219,-0.0231,-0.0264,-0.0276,-0.0291,-0.031,-0.0324,-0.0348,-0.0362,-0.0392,-0.0401,-0.0424,-0.0445,-0.0479,-0.0502,-0.0526,-0.0533,-0.0533,-0.0536,-0.053,-0.0533,-0.0532,-0.0533,-0.0532,-0.0532,-0.0532,-0.0531,0,-0.0217,-0.0228,-0.0247,-0.0271,-0.0288,-0.0307,-0.0328,-0.0337,-0.0365,-0.0379,-0.0402,-0.0418,-0.0448,-0.0472,-0.0497,-0.0514,-0.0527,-0.053,-0.0532,-0.0526,-0.0517,-0.0522,-0.0525,-0.053,-0.053,-0.053,-0.053,-0.053,-0.0212,-0.0224,-0.0249,-0.027,-0.0288,-0.0307,-0.032,-0.0339,-0.0359,-0.0385,-0.0398,-0.0421,-0.0445,-0.0481,-0.0497,-0.0515,-0.0519,-0.0522,-0.0523,-0.0523,-0.0521,-0.0514,-0.0519,-0.052,-0.052,-0.052,-0.052,0,-0.0212,-0.0229,-0.0248,-0.0276,-0.0292,-0.0303,-0.0326,-0.034,-0.0359,-0.0381,-0.04,-0.0426,-0.0448,-0.0473,-0.0496,-0.0506,-0.0513,-0.0511,-0.0511,-0.0514,-0.0517,-0.0512,-0.0506,-0.0506,-0.0506,-0.0506,-0.0506,-0.0506,-0.0214,-0.0234,-0.0247,-0.0276,-0.0292,-0.0315,-0.0327,-0.0344,-0.0361,-0.0389,-0.0407,-0.0423,-0.0446,-0.0471,-0.0492,-0.0499,-0.0506,-0.0503,-0.0512,-0.0513,-0.0514,-0.0515,-0.0512,-0.0505,-0.0505,-0.0508,-0.0508,-0.0508]}]]